,,PA_Meas_PMT16A,,PR_Meas_QMR101_102,,RH_Meas_QMH101,,SR_Meas_QMS101,,TA_Meas_QMH101,,GenWind,,GenWind,
time,status,PA,status,PR,status,RH,status,SR,status,TA,status,DirAvg,status,SpdAvg,
2014-08-02, 06:56:04,VALID,917.399,VALID,0,VALID,87.6312,VALID,37.2821,VALID,19.0218,VALID,5,VALID,0.404687,
2014-08-02, 06:57:04,VALID,917.389,VALID,0,VALID,87.0518,VALID,43.2988,VALID,19.0998,VALID,5,VALID,0.165234,
2014-08-02, 06:58:04,VALID,917.386,VALID,0,VALID,86.6554,VALID,48.0262,VALID,19.1973,VALID,331,VALID,0.547266,
2014-08-02, 06:59:04,VALID,917.388,VALID,0,VALID,86.1751,VALID,50.3899,VALID,19.3143,VALID,331,VALID,0.289063,
2014-08-02, 07:00:04,VALID,917.424,VALID,0,VALID,85.4509,VALID,51.8941,VALID,19.4313,VALID,331,VALID,0.240625,
2014-08-02, 07:01:04,VALID,917.403,VALID,0,VALID,85.0392,VALID,55.0099,VALID,19.5093,VALID,327,VALID,0.566797,
2014-08-02, 07:02:04,VALID,917.44,VALID,0,VALID,84.7038,VALID,59.9522,VALID,19.5468,VALID,319,VALID,0.512891,
2014-08-02, 07:03:04,VALID,917.471,VALID,0,VALID,84.4446,VALID,61.2415,VALID,19.6638,VALID,319,VALID,0.255078,
2014-08-02, 07:04:04,VALID,917.504,VALID,0,VALID,83.9414,VALID,57.8033,VALID,19.7628,VALID,320,VALID,0.483984,
2014-08-02, 07:05:04,VALID,917.545,VALID,0,VALID,83.5374,VALID,52.5387,VALID,19.8588,VALID,320,VALID,0,
2014-08-02, 07:06:04,VALID,917.576,VALID,0,VALID,83.2629,VALID,46.522,VALID,19.8978,VALID,320,VALID,0.365234,
2014-08-02, 07:07:04,VALID,917.621,VALID,0,VALID,83.4612,VALID,38.2491,VALID,19.8978,VALID,320,VALID,0.336328,
2014-08-02, 07:08:04,VALID,917.602,VALID,0,VALID,83.6594,VALID,32.877,VALID,19.8978,VALID,320,VALID,0,
2014-08-02, 07:09:04,VALID,917.613,VALID,0,VALID,83.8042,VALID,30.9431,VALID,19.9188,VALID,320,VALID,0,
2014-08-02, 07:10:04,VALID,917.613,VALID,0,VALID,83.8042,VALID,28.4719,VALID,19.8783,VALID,320,VALID,0,
2014-08-02, 07:11:04,VALID,917.605,VALID,0,VALID,83.9796,VALID,26.7528,VALID,19.8798,VALID,320,VALID,0,
2014-08-02, 07:12:04,VALID,917.607,VALID,0,VALID,84.1244,VALID,26.9677,VALID,19.8603,VALID,320,VALID,0,
2014-08-02, 07:13:04,VALID,917.617,VALID,0,VALID,84.2311,VALID,27.3975,VALID,19.8393,VALID,320,VALID,0,
2014-08-02, 07:14:04,VALID,917.586,VALID,0,VALID,84.437,VALID,28.0421,VALID,19.8198,VALID,320,VALID,0,
2014-08-02, 07:15:04,VALID,917.634,VALID,0,VALID,84.6352,VALID,28.9017,VALID,19.7613,VALID,320,VALID,0,
2014-08-02, 07:16:04,VALID,917.611,VALID,0,VALID,85.024,VALID,29.9761,VALID,19.7223,VALID,320,VALID,0,
2014-08-02, 07:17:04,VALID,917.622,VALID,0,VALID,84.8944,VALID,31.0505,VALID,19.7028,VALID,319,VALID,0,
2014-08-02, 07:18:04,VALID,917.664,VALID,0,VALID,85.0545,VALID,31.8026,VALID,19.6833,VALID,320,VALID,0,
2014-08-02, 07:19:04,VALID,917.663,VALID,0,VALID,85.2908,VALID,32.5547,VALID,19.6443,VALID,320,VALID,0,
2014-08-02, 07:20:04,VALID,917.69,VALID,0,VALID,85.4509,VALID,33.0919,VALID,19.6068,VALID,320,VALID,0,
2014-08-02, 07:21:04,VALID,917.705,VALID,0,VALID,85.6643,VALID,34.9184,VALID,19.5678,VALID,320,VALID,0.126172,
2014-08-02, 07:22:04,VALID,917.689,VALID,0,VALID,86.1446,VALID,35.9928,VALID,19.5288,VALID,320,VALID,0.0410156,
2014-08-02, 07:23:04,VALID,917.71,VALID,0,VALID,86.4419,VALID,35.9928,VALID,19.4898,VALID,320,VALID,0,
2014-08-02, 07:24:04,VALID,917.736,VALID,0,VALID,86.5791,VALID,35.563,VALID,19.4718,VALID,320,VALID,0,
2014-08-02, 07:25:04,VALID,917.745,VALID,0,VALID,86.7545,VALID,35.7779,VALID,19.4118,VALID,320,VALID,0,
2014-08-02, 07:26:04,VALID,917.762,VALID,0,VALID,87.1356,VALID,36.4226,VALID,19.3533,VALID,320,VALID,0,
2014-08-02, 07:27:04,VALID,917.753,VALID,0,VALID,87.2043,VALID,37.7118,VALID,19.3338,VALID,320,VALID,0.121875,
2014-08-02, 07:28:04,VALID,917.734,VALID,0,VALID,87.4787,VALID,39.5383,VALID,19.3143,VALID,320,VALID,0.303906,
2014-08-02, 07:29:04,VALID,917.72,VALID,0,VALID,87.5854,VALID,41.5797,VALID,19.2948,VALID,320,VALID,0.401172,
2014-08-02, 07:30:04,VALID,917.734,VALID,0,VALID,87.7531,VALID,43.4062,VALID,19.2948,VALID,320,VALID,0.470313,
2014-08-02, 07:31:04,VALID,917.773,VALID,0,VALID,87.7913,VALID,45.0178,VALID,19.2753,VALID,320,VALID,0.146875,
2014-08-02, 07:32:04,VALID,917.774,VALID,0,VALID,87.9056,VALID,46.8443,VALID,19.2363,VALID,320,VALID,0.0730469,
2014-08-02, 07:33:04,VALID,917.828,VALID,0,VALID,88.0352,VALID,49.208,VALID,19.2168,VALID,320,VALID,0.367969,
2014-08-02, 07:34:04,VALID,917.879,VALID,0,VALID,88.02,VALID,53.6131,VALID,19.2168,VALID,320,VALID,0.360156,
2014-08-02, 07:35:04,VALID,917.89,VALID,0,VALID,88.1801,VALID,66.721,VALID,19.2182,VALID,320,VALID,0.751562,
2014-08-02, 07:36:04,VALID,917.903,VALID,0,VALID,88.5079,VALID,91.7547,VALID,19.1568,VALID,320,VALID,0.802734,
2014-08-02, 07:37:04,VALID,917.922,VALID,0,VALID,88.8967,VALID,103.681,VALID,19.1778,VALID,357,VALID,0.801562,
2014-08-02, 07:38:04,VALID,917.946,VALID,0,VALID,88.8814,VALID,121.194,VALID,19.1973,VALID,357,VALID,0.773047,
2014-08-02, 07:39:04,VALID,917.941,VALID,0,VALID,88.95,VALID,102.499,VALID,19.2363,VALID,357,VALID,0.982031,
2014-08-02, 07:40:04,VALID,917.957,VALID,0,VALID,89.0415,VALID,91.9696,VALID,19.2948,VALID,357,VALID,0.796875,
2014-08-02, 07:41:04,VALID,917.954,VALID,0,VALID,88.9653,VALID,123.987,VALID,19.3728,VALID,20,VALID,0.905078,
2014-08-02, 07:42:04,VALID,917.946,VALID,0,VALID,88.7061,VALID,146.442,VALID,19.5093,VALID,20,VALID,0.640234,
2014-08-02, 07:43:04,VALID,917.973,VALID,0,VALID,87.5702,VALID,80.366,VALID,19.6653,VALID,20,VALID,1.08867,
2014-08-02, 07:44:04,VALID,917.984,VALID,0,VALID,87.0365,VALID,78.1097,VALID,19.8003,VALID,20,VALID,0.950781,
2014-08-02, 07:45:04,VALID,917.947,VALID,0,VALID,86.3352,VALID,88.9613,VALID,19.9188,VALID,19,VALID,0.832812,
2014-08-02, 07:46:04,VALID,917.987,VALID,0,VALID,86.4724,VALID,97.5566,VALID,19.9368,VALID,19,VALID,0.61875,
2014-08-02, 07:47:04,VALID,918.004,VALID,0,VALID,86.4724,VALID,87.4571,VALID,20.0163,VALID,19,VALID,0.45625,
2014-08-02, 07:48:04,VALID,917.999,VALID,0,VALID,86.3276,VALID,100.672,VALID,20.0944,VALID,19,VALID,0.31875,
2014-08-02, 07:49:04,VALID,918.02,VALID,0,VALID,86.7011,VALID,121.838,VALID,20.1513,VALID,19,VALID,0.367188,
2014-08-02, 07:50:04,VALID,918.062,VALID,0,VALID,85.6415,VALID,183.08,VALID,20.2699,VALID,19,VALID,0.598828,
2014-08-02, 07:51:04,VALID,918.079,VALID,0,VALID,85.9769,VALID,161.377,VALID,20.3869,VALID,19,VALID,0.542578,
2014-08-02, 07:52:04,VALID,918.087,VALID,0,VALID,85.7634,VALID,182.005,VALID,20.5219,VALID,19,VALID,0.0925781,
2014-08-02, 07:53:04,VALID,918.095,VALID,0,VALID,85.4051,VALID,138.492,VALID,20.7381,VALID,19,VALID,0.169531,
2014-08-02, 07:54:04,VALID,918.115,VALID,0,VALID,85.0926,VALID,93.4738,VALID,20.8925,VALID,19,VALID,0.399219,
2014-08-02, 07:55:04,VALID,918.129,VALID,0,VALID,83.8118,VALID,100.78,VALID,21.0096,VALID,19,VALID,0.208594,
2014-08-02, 07:56:04,VALID,918.153,VALID,0,VALID,81.6544,VALID,87.8869,VALID,21.0876,VALID,359,VALID,0.284766,
2014-08-02, 07:57:04,VALID,918.145,VALID,0,VALID,80.9683,VALID,101.102,VALID,21.0892,VALID,335,VALID,0.323828,
2014-08-02, 07:58:04,VALID,918.111,VALID,0,VALID,80.7167,VALID,98.9533,VALID,21.0697,VALID,338,VALID,0.355078,
2014-08-02, 07:59:04,VALID,918.138,VALID,0,VALID,80.8768,VALID,96.4822,VALID,21.0486,VALID,338,VALID,0.190234,
2014-08-02, 08:00:04,VALID,918.151,VALID,0,VALID,82.958,VALID,148.699,VALID,21.0681,VALID,338,VALID,0.428906,
2014-08-02, 08:01:04,VALID,918.113,VALID,0,VALID,82.8437,VALID,149.88,VALID,21.1461,VALID,338,VALID,0.382422,
2014-08-02, 08:02:04,VALID,918.173,VALID,0,VALID,82.371,VALID,215.957,VALID,21.2242,VALID,338,VALID,0.373047,
2014-08-02, 08:03:04,VALID,918.194,VALID,0,VALID,82.3786,VALID,236.693,VALID,21.3217,VALID,338,VALID,0.333984,
2014-08-02, 08:05:04,VALID,918.22,VALID,0,VALID,80.8387,VALID,259.255,VALID,21.6534,VALID,338,VALID,0,
2014-08-02, 08:06:04,VALID,918.231,VALID,0,VALID,78.8185,VALID,267.206,VALID,21.79,VALID,338,VALID,0.318359,
2014-08-02, 08:07:04,VALID,918.242,VALID,0,VALID,79.4207,VALID,270.429,VALID,21.9851,VALID,340,VALID,0.692969,
2014-08-02, 08:08:04,VALID,918.271,VALID,0,VALID,78.0638,VALID,275.694,VALID,22.081,VALID,340,VALID,0,
2014-08-02, 08:09:04,VALID,918.279,VALID,0,VALID,77.2328,VALID,283.86,VALID,22.2583,VALID,345,VALID,0.521094,
2014-08-02, 08:10:04,VALID,918.287,VALID,0,VALID,76.5543,VALID,287.19,VALID,22.4128,VALID,346,VALID,0.156641,
2014-08-02, 08:11:04,VALID,918.294,VALID,0,VALID,75.9978,VALID,283.537,VALID,22.4713,VALID,346,VALID,0.125391,
2014-08-02, 08:12:04,VALID,918.295,VALID,0,VALID,75.327,VALID,271.396,VALID,22.5706,VALID,356,VALID,0.480469,
2014-08-02, 08:13:04,VALID,918.281,VALID,0,VALID,74.2521,VALID,265.38,VALID,22.5689,VALID,335,VALID,0.298438,
2014-08-02, 08:14:04,VALID,918.274,VALID,0,VALID,74.1606,VALID,275.694,VALID,22.5884,VALID,343,VALID,0.318359,
2014-08-02, 08:15:04,VALID,918.287,VALID,0,VALID,74.092,VALID,277.843,VALID,22.7836,VALID,343,VALID,0.309766,
2014-08-02, 08:16:04,VALID,918.298,VALID,0,VALID,73.848,VALID,281.281,VALID,22.9202,VALID,343,VALID,0.351172,
2014-08-02, 08:17:04,VALID,918.287,VALID,0,VALID,74.1377,VALID,280.636,VALID,23.0551,VALID,359,VALID,0.139453,
2014-08-02, 08:18:04,VALID,918.325,VALID,0,VALID,73.6346,VALID,291.166,VALID,23.1349,VALID,355,VALID,1.08242,
2014-08-02, 08:19:04,VALID,918.329,VALID,0,VALID,72.9561,VALID,305.025,VALID,22.9983,VALID,343,VALID,0.565625,
2014-08-02, 08:20:04,VALID,918.329,VALID,0,VALID,73.322,VALID,324.687,VALID,22.8616,VALID,7,VALID,0.712891,
2014-08-02, 08:21:04,VALID,918.362,VALID,0,VALID,74.0996,VALID,332.423,VALID,22.9592,VALID,6,VALID,0.246094,
2014-08-02, 08:22:04,VALID,918.365,VALID,0,VALID,73.6498,VALID,350.58,VALID,22.9575,VALID,315,VALID,0.809375,
2014-08-02, 08:23:04,VALID,918.382,VALID,0,VALID,74.2368,VALID,368.201,VALID,22.8404,VALID,345,VALID,0.852734,
2014-08-02, 08:24:04,VALID,918.431,VALID,0,VALID,74.2521,VALID,385.391,VALID,22.8616,VALID,18,VALID,0.402344,
2014-08-02, 08:25:04,VALID,918.438,VALID,0,VALID,74.4045,VALID,400.003,VALID,22.8794,VALID,329,VALID,0.441797,
2014-08-02, 08:26:04,VALID,918.44,VALID,0,VALID,74.1225,VALID,415.69,VALID,22.9185,VALID,331,VALID,0.347656,
2014-08-02, 08:27:04,VALID,918.478,VALID,0,VALID,74.9229,VALID,429.55,VALID,23.0568,VALID,5,VALID,0.833984,
2014-08-02, 08:28:04,VALID,918.529,VALID,0,VALID,73.6727,VALID,445.666,VALID,23.1349,VALID,354,VALID,0.590234,
2014-08-02, 08:29:04,VALID,918.529,VALID,0,VALID,72.2319,VALID,464.683,VALID,23.0373,VALID,291,VALID,1.64961,
2014-08-02, 08:30:04,VALID,918.55,VALID,0,VALID,75.2126,VALID,479.617,VALID,22.8209,VALID,345,VALID,0.737109,
2014-08-02, 08:31:04,VALID,918.582,VALID,0,VALID,74.8086,VALID,493.585,VALID,22.8989,VALID,358,VALID,1.41211,
2014-08-02, 08:32:04,VALID,918.597,VALID,0,VALID,75.0906,VALID,504.436,VALID,22.9575,VALID,29,VALID,1.16406,
2014-08-02, 08:33:04,VALID,918.583,VALID,0,VALID,76.2037,VALID,511.098,VALID,23.0356,VALID,345,VALID,0.664844,
